Simultaneous Nadir Overpasses (SNOs) Predictions

Prediction of SNOs between GOES-16 and NPP Satellite Orbit:

Table of predicted SNOs for the next 14.0 days since TLE Epoch: 10/16/2023
Index Date Time (GOES-16) GOES-16 Lat,Lon NPP Lat,Lon Distance(km) Time Diff (sec)
1 10/17/2023 06:30:14 0.03, -75.21 0.29, -76.41 136.83 80
2 10/18/2023 06:14:10 0.04, -75.21 -0.69, -71.88 378.99 80
3 10/19/2023 18:33:27 -0.03, -75.21 -0.50, -77.19 226.01 80
4 10/20/2023 18:17:23 -0.03, -75.21 0.55, -72.67 289.91 80
5 10/22/2023 06:39:12 0.02, -75.21 0.66, -77.94 312.03 80
6 10/23/2023 06:17:48 0.02, -75.21 -0.39, -73.42 204.15 80
7 10/24/2023 18:39:45 -0.01, -75.22 -0.78, -78.73 399.92 80
8 10/25/2023 18:23:41 -0.01, -75.23 0.22, -74.20 116.98 80
9 10/27/2023 06:45:29 0.01, -75.24 0.98, -79.47 483.00 80
10 10/28/2023 06:24:06 0.01, -75.25 -0.08, -74.96 34.40 80
